Location: Unspecified
(42.2730°N, 83.7130°W)
Time: 14:46:51
(UTC+00:00)

Cosmos 2369 - Pass Details

Date: 14 December 2025
Orbit: 839 x 854 km, 71.0° (Epoch: 17 January)

Event Time Altitude Azimuth Distance (km) Brightness Sun altitude
Rises 22:45:21 0° 178° (S) 3,404 7.2 -7.7°
Reaches altitude 10° 22:47:57 10° 170° (S) 2,474 6.3 -8.2°
Maximum altitude 22:53:05 36° 105° (ESE) 1,325 4.4 -9.0°
Drops below altitude 10° 22:58:15 10° 41° (NE) 2,489 5.6 -9.9°
Enters shadow 22:58:35 - 39° (NE) 2,605 5.7 -10.0°
